DW4005 Mahon ES current weather conditions

sailwx.info

Wind from 077 at 3 knots gusting 8

Air temperature 25.0° C

Last reported at 2015-Sep-04 13:43 UTC.
Time now 2015-Sep-04 14:32 UTC

Location: N 39°56' E 004°08'.
View on Google Maps.

See reports from other nearby stations

  
Tides and Currents Weather Stations Pressure Air Temp Water Temp Dewpoint Dewpoint Depression Visibility Wind Speed Wind Dir Waves Ship Positions
date/time (UTC)wind fromknots sea level pressurealtimeterstation pressurevisibilityair tempwater tempwave heightnotes
2015-Sep-04 13:43 077 3 gusting 8 25.0
2015-Sep-04 13:28 115 3 gusting 8 24.4
2015-Sep-04 12:58 066 3 gusting 7 23.9
2015-Sep-04 12:27 049 4 gusting 6 23.9
2015-Sep-04 12:12 024 3 gusting 8 23.9
2015-Sep-04 11:57 082 4 gusting 7 23.9
2015-Sep-04 11:27 054 2 gusting 7 23.3
2015-Sep-04 11:12 076 2 gusting 6 22.8
2015-Sep-04 10:57 049 2 gusting 7 22.8
2015-Sep-04 10:42 039 3 gusting 6 22.8
2015-Sep-04 10:27 030 2 gusting 6 22.2
2015-Sep-04 10:12 055 5 gusting 5 22.8
2015-Sep-04 09:59
2015-Sep-04 09:45 042 3 gusting 6 22.8
2015-Sep-04 09:15 053 3 gusting 7 23.3
2015-Sep-04 09:02 028 3 gusting 6 23.9
2015-Sep-04 08:45 049 3 gusting 7 23.9
2015-Sep-04 08:15 089 2 gusting 6 23.9
2015-Sep-04 07:44 074 2 gusting 6 24.4
2015-Sep-04 07:29 094 2 gusting 8 24.4
2015-Sep-04 07:14 061 2 gusting 6 23.9
2015-Sep-04 06:59 065 2 gusting 6 23.9
2015-Sep-04 06:44 063 2 gusting 6 23.3
2015-Sep-04 06:29 070 2 gusting 6 23.3
2015-Sep-04 06:14 036 2 gusting 6 23.3
2015-Sep-04 05:59 089 2 gusting 6 23.3
2015-Sep-04 05:44 067 1 gusting 6 23.3
2015-Sep-04 05:14 109 2 gusting 6 23.3
2015-Sep-04 04:44 039 1 gusting 7 23.3
2015-Sep-04 04:28 061 2 gusting 6 23.3
2015-Sep-04 04:13 040 2 gusting 7 23.3
2015-Sep-04 03:58 038 2 gusting 6 23.3
2015-Sep-04 03:43 065 2 gusting 6 23.3
2015-Sep-04 03:28 058 2 gusting 6 23.3
2015-Sep-04 02:43 038 2 gusting 6 23.3
2015-Sep-04 02:28 059 2 gusting 6 23.3
2015-Sep-04 02:13 047 2 gusting 7 23.3
2015-Sep-04 01:58 060 2 gusting 7 23.9
2015-Sep-04 01:28 074 2 gusting 7 23.3
2015-Sep-04 01:13 080 2 gusting 6 23.3
2015-Sep-04 00:57 062 2 gusting 6 23.3
2015-Sep-04 00:42 042 1 gusting 6 23.3
2015-Sep-04 00:27 045 2 gusting 7 23.3
2015-Sep-04 00:12 062 1 gusting 6 23.3
2015-Sep-03 23:57 057 3 gusting 7 23.3
2015-Sep-03 23:42 054 2 gusting 7 23.3
2015-Sep-03 23:27 048 2 gusting 7 23.3
2015-Sep-03 23:12 050 2 gusting 7 23.9
2015-Sep-03 22:27 118 1 gusting 6 23.3
2015-Sep-03 22:12 059 1 gusting 6 23.3
2015-Sep-03 21:57 065 1 gusting 5 23.3
2015-Sep-03 21:42 079 1 gusting 5 23.3
2015-Sep-03 21:26 098 1 gusting 5 23.3
2015-Sep-03 21:11 116 1 gusting 5 23.3
2015-Sep-03 20:56 128 0 gusting 5 23.3
2015-Sep-03 20:41 136 0 gusting 5 23.3
2015-Sep-03 20:26 145 0 gusting 3 23.3
2015-Sep-03 20:11 150 1 gusting 3 23.3
2015-Sep-03 19:56 157 0 gusting 4 23.3
2015-Sep-03 19:41 163 23.3
2015-Sep-03 19:29 163 0 gusting 1 22.8
2015-Sep-03 19:11 163 0 gusting 1 22.8
2015-Sep-03 18:56 163 22.8
2015-Sep-03 18:41 163 0 gusting 3 22.8
2015-Sep-03 18:26 163 22.8
2015-Sep-03 18:11 163 0 gusting 2 22.8
2015-Sep-03 17:55 162 0 gusting 4 22.8
2015-Sep-03 17:40 153 0 gusting 5 22.8
2015-Sep-03 17:25 155 1 gusting 5 22.8
2015-Sep-03 17:10 159 2 gusting 6 22.8
2015-Sep-03 16:55 155 3 gusting 6 22.8
2015-Sep-03 16:40 163 1 gusting 6 22.2
2015-Sep-03 16:25 130 2 gusting 6 22.2
2015-Sep-03 16:10 144 1 gusting 5 22.2
2015-Sep-03 15:40 154 4 gusting 7 22.2
2015-Sep-03 15:25 167 4 gusting 7 22.2
2015-Sep-03 15:10 153 2 gusting 6 21.7
2015-Sep-03 14:55 159 0 gusting 4 21.1
2015-Sep-03 14:40 163 0 gusting 4 21.1
2015-Sep-03 12:54 165 4 gusting 7 20.0
2015-Sep-03 12:39 154 3 gusting 6 20.6
2015-Sep-03 12:24 143 2 gusting 6 21.7
2015-Sep-03 12:09 164 1 gusting 5 21.7
2015-Sep-03 11:24 136 3 gusting 7 22.2
2015-Sep-03 10:54 153 3 gusting 6 22.2
2015-Sep-03 10:23 149 1 gusting 6 22.2
2015-Sep-03 10:08 145 4 gusting 8 23.3
2015-Sep-03 09:53 126 4 gusting 7 23.3
2015-Sep-03 09:23 096 2 gusting 6 22.8
2015-Sep-03 09:08 049 2 gusting 6 22.8
2015-Sep-03 08:38 041 3 gusting 6 22.2
2015-Sep-03 07:38 175 2 gusting 6 26.1
2015-Sep-03 07:07 172 1 gusting 5 25.0
2015-Sep-03 06:52 165 2 gusting 6 24.4
2015-Sep-03 06:37 169 2 gusting 5 24.4
2015-Sep-03 06:22 169 2 gusting 6 23.9
2015-Sep-03 06:07 165 1 gusting 4 23.9
2015-Sep-03 05:22 173 1 gusting 4 23.3
2015-Sep-03 05:07 169 1 gusting 5 23.3
2015-Sep-03 04:52 167 1 gusting 4 23.3
2015-Sep-03 04:37 166 0 gusting 2 22.8
2015-Sep-03 04:07 169 2 gusting 5 22.8
2015-Sep-03 03:52 169 1 gusting 2 23.3
2015-Sep-03 03:21 167 1 gusting 3 22.8
2015-Sep-03 02:21 167 1 gusting 3 23.3
2015-Sep-03 02:06 168 1 gusting 3 23.3
2015-Sep-03 01:51 168 1 gusting 2 23.3
2015-Sep-03 01:36 167 0 gusting 3 23.3
2015-Sep-03 01:21 167 0 gusting 3 23.3
2015-Sep-03 00:36 167 0 gusting 2 22.8
2015-Sep-03 00:05 167 0 gusting 3 22.8
2015-Sep-02 23:50 168 0 gusting 4 22.8
2015-Sep-02 23:20 173 1 gusting 4 22.8
2015-Sep-02 23:05 173 1 gusting 3 23.3
2015-Sep-02 22:50 173 1 gusting 4 23.3
2015-Sep-02 22:05 167 1 gusting 3 23.3
2015-Sep-02 21:05 164 0 gusting 2 23.3
2015-Sep-02 19:35 146 1 gusting 4 23.9
2015-Sep-02 19:20 138 1 gusting 3 23.9
2015-Sep-02 19:05 137 1 gusting 2 23.9
2015-Sep-02 18:35 134 1 gusting 3 24.4
2015-Sep-02 18:20 134 1 gusting 4 24.4
2015-Sep-02 18:05 139 1 gusting 5 24.4
2015-Sep-02 17:50 142 1 gusting 6 25.0
2015-Sep-02 17:35 139 1 gusting 6 25.0
2015-Sep-02 17:05 134 1 gusting 6 25.0
2015-Sep-02 16:50 132 2 gusting 5 25.6
2015-Sep-02 16:35 127 4 gusting 4 25.6
2015-Sep-02 16:21
2015-Sep-02 16:08 130 2 gusting 5 26.1
2015-Sep-02 15:53 153 2 gusting 6 26.1
2015-Sep-02 15:38 139 1 gusting 5 26.1
2015-Sep-02 15:23 111 1 gusting 5 26.7
2015-Sep-02 15:08 129 2 gusting 5 26.7
2015-Sep-02 14:53 128 2 gusting 5 26.1
2015-Sep-02 14:08 140 2 gusting 5 26.1